sat.trackr.live / text

‹ back to catalog

STARLINK-5054

NORAD 53906 · 2022-119W

PAYLOAD ACTIVE UNKNOWN

§ Identity

Operator
Country
US
Launch date
2022-09-24
Launch site
AFETR
Launch vehicle
Mass (kg)
RCS (m²)

Purposes: comms

External: N2YO · Heavens-Above · Gunter

§ Orbital elements

Epoch: 2026-05-24T23:06:39.312000Z

Period
95.44 min
Inclination
53.2134°
Eccentricity
0.0001407
Mean motion
15.08839917 rev/d
Perigee alt
538.8 km
Apogee alt
540.7 km
Semi-major
6,917.9 km
B*
4.1541e-5
RAAN
331.4336°
Arg perigee
68.8359°
Mean anomaly
291.2783°
Rev number
20,334

§ Raw data

STARLINK-50541 53906U 22119W   26144.96295500  .00000373  00000+0  41541-4 0  99922 53906  53.2134 331.4336 0001407  68.8359 291.2783 15.08839917203342

JSON: /api/v1/satellites/53906 · /tle

For live sub-satellite position, see the globe view (requires WebGL).

§ Visibility from observer

Set your observer location to see the next 7 days of passes ≥ 10°. The values pass through the URL so the page stays shareable.

No JS? Fill the form by hand. The geolocation button needs JavaScript.